2023/07/27 00:00:00,79.8,21.5
2023/07/27 00:10:00,79.8,21.9
2023/07/27 00:20:00,79.8,21.7
2023/07/27 00:30:00,79.8,21.5
2023/07/27 00:40:00,79.8,21.5
2023/07/27 00:50:00,79.8,21.4
2023/07/27 01:00:00,79.7,21.5
2023/07/27 01:10:00,79.7,21.5
2023/07/27 01:20:00,79.7,21.4
2023/07/27 01:30:00,79.7,21.2
2023/07/27 01:40:00,79.7,21.4
2023/07/27 01:50:00,79.8,21.3
2023/07/27 02:00:00,79.8,21.2
2023/07/27 02:10:00,79.8,21.2
2023/07/27 02:20:00,79.7,21.1
2023/07/27 02:30:00,79.8,21.2
2023/07/27 02:40:00,79.8,21.2
2023/07/27 02:50:00,79.8,21.3
2023/07/27 03:00:00,79.8,21.0
2023/07/27 03:10:00,79.8,21.0
2023/07/27 03:20:00,79.8,21.2
2023/07/27 03:30:00,79.8,21.0
2023/07/27 03:40:00,79.8,21.1
2023/07/27 03:50:00,79.8,21.1
2023/07/27 04:00:00,79.8,21.1
2023/07/27 04:10:00,79.8,21.1
2023/07/27 04:20:00,79.8,21.0
2023/07/27 04:30:00,79.8,21.1
2023/07/27 04:40:00,79.8,21.0
2023/07/27 04:50:00,79.8,20.9
2023/07/27 05:00:00,79.8,21.1
2023/07/27 05:10:00,79.9,21.0
2023/07/27 05:20:00,79.9,20.8
2023/07/27 05:30:00,80.0,21.0
2023/07/27 05:40:00,80.0,20.9
2023/07/27 05:50:00,80.1,21.1
2023/07/27 06:00:00,80.1,21.2
2023/07/27 06:10:00,80.1,21.2
2023/07/27 06:20:00,80.2,21.4
2023/07/27 06:30:00,80.2,21.5
2023/07/27 06:40:00,80.2,21.3
2023/07/27 06:50:00,80.2,22.0
2023/07/27 07:00:00,80.3,22.2
2023/07/27 07:10:00,80.2,22.4
2023/07/27 07:20:00,80.3,22.7
2023/07/27 07:30:00,80.3,23.1
2023/07/27 07:40:00,80.7,25.8
2023/07/27 07:50:00,80.3,28.3
2023/07/27 08:00:00,80.1,28.6
2023/07/27 08:10:00,80.4,29.9
2023/07/27 08:20:00,81.0,30.2
2023/07/27 08:30:00,81.5,31.2
2023/07/27 08:40:00,82.0,31.2
2023/07/27 08:50:00,---,30.6
2023/07/27 09:00:00,49.9,29.8
2023/07/27 09:10:00,55.8,29.0
2023/07/27 09:20:00,27.5,29.2
2023/07/27 09:30:00,50.0,29.5
2023/07/27 09:40:00,65.8,29.3
2023/07/27 09:50:00,82.2,29.9
2023/07/27 10:00:00,82.9,30.0
2023/07/27 10:10:00,---,29.9
2023/07/27 10:20:00,---,31.2
2023/07/27 10:30:00,82.9,31.6
2023/07/27 10:40:00,82.2,30.3
2023/07/27 10:50:00,81.7,30.7
2023/07/27 11:00:00,81.9,31.2
2023/07/27 11:10:00,81.6,30.9
2023/07/27 11:20:00,81.5,31.1
2023/07/27 11:30:00,82.2,31.3
2023/07/27 11:40:00,81.3,31.4
2023/07/27 11:50:00,81.5,32.5
2023/07/27 12:00:00,81.0,31.0
2023/07/27 12:10:00,81.0,30.4
2023/07/27 12:20:00,82.0,31.1
2023/07/27 12:30:00,80.8,29.1
2023/07/27 12:40:00,80.3,30.1
2023/07/27 12:50:00,80.3,29.0
2023/07/27 13:00:00,80.5,28.9
2023/07/27 13:10:00,80.9,28.5
2023/07/27 13:20:00,79.9,27.8
2023/07/27 13:30:00,79.5,27.4
2023/07/27 13:40:00,79.6,27.4
2023/07/27 13:50:00,79.5,26.9
2023/07/27 14:00:00,79.4,26.5
2023/07/27 14:10:00,79.3,25.8
2023/07/27 14:20:00,79.3,25.1
2023/07/27 14:30:00,79.3,24.3
2023/07/27 14:40:00,78.1,24.5
2023/07/27 14:50:00,78.6,24.4
2023/07/27 15:00:00,79.4,24.0
2023/07/27 15:10:00,80.0,24.0
2023/07/27 15:20:00,80.0,24.2
2023/07/27 15:30:00,80.2,24.5
2023/07/27 15:40:00,80.6,25.1
2023/07/27 15:50:00,81.4,26.2
2023/07/27 16:00:00,82.0,26.5
2023/07/27 16:10:00,82.2,27.5
2023/07/27 16:20:00,81.7,26.9
2023/07/27 16:30:00,82.0,26.9
2023/07/27 16:40:00,80.8,26.1
2023/07/27 16:50:00,80.4,26.3
2023/07/27 17:00:00,80.3,26.4
2023/07/27 17:10:00,80.1,26.2
2023/07/27 17:20:00,80.3,26.1
2023/07/27 17:30:00,80.2,25.9
2023/07/27 17:40:00,80.0,25.7
2023/07/27 17:50:00,79.8,25.4
2023/07/27 18:00:00,79.7,25.1
2023/07/27 18:10:00,79.6,24.9
2023/07/27 18:20:00,79.3,24.8
2023/07/27 18:30:00,79.0,24.4
2023/07/27 18:40:00,78.8,24.4
2023/07/27 18:50:00,78.3,24.1
2023/07/27 19:00:00,78.0,24.0
2023/07/27 19:10:00,78.3,23.8
2023/07/27 19:20:00,78.3,23.3
2023/07/27 19:30:00,78.3,23.3
2023/07/27 19:40:00,78.5,23.0
2023/07/27 19:50:00,78.3,23.1
2023/07/27 20:00:00,78.5,22.8
2023/07/27 20:10:00,78.7,23.0
2023/07/27 20:20:00,78.9,22.7
2023/07/27 20:30:00,79.1,22.5
2023/07/27 20:40:00,79.0,22.5
2023/07/27 20:50:00,79.0,22.4
2023/07/27 21:00:00,79.1,22.1
2023/07/27 21:10:00,79.1,22.1
2023/07/27 21:20:00,79.0,22.2
2023/07/27 21:30:00,79.2,22.0
2023/07/27 21:40:00,79.1,22.0
2023/07/27 21:50:00,79.1,21.8
2023/07/27 22:00:00,79.1,21.7
2023/07/27 22:10:00,79.0,21.7
2023/07/27 22:20:00,79.0,21.4
2023/07/27 22:30:00,79.0,21.4
2023/07/27 22:40:00,78.6,21.3
2023/07/27 22:50:00,78.6,21.2
2023/07/27 23:00:00,78.5,21.5
2023/07/27 23:10:00,78.5,21.2
2023/07/27 23:20:00,78.3,21.1
2023/07/27 23:30:00,78.3,21.0
2023/07/27 23:40:00,78.2,21.1
2023/07/27 23:50:00,78.2,21.1
